Weather History for Lakeville, MN

Change the Weather History Date:

Saturday, November 19, 2011

  Actual Average Record
Temperature  
Mean Temperature 28 °F -  
Max Temperature 32 °F 39 °F 59 °F (1953)
Min Temperature 24 °F 24 °F 0 °F (1978)
Degree Days  
Heating Degree Days 37    
Moisture  
Dew Point 26 °F    
Average Humidity 89    
Maximum Humidity 100    
Minimum Humidity 80    
Precipitation  
Precipitation 0.05 in - - ()
Sea Level Pressure  
Sea Level Pressure 29.76 in    
Wind  
Wind Speed 9 mph (North)    
Max Wind Speed 16 mph    
Max Gust Speed 24 mph    
Visibility 7 miles    
Events Snow    
Averages and records for this station are not official NWS values.
T = Trace of Precipitation, MM = Missing Value Source: NWS Daily Summary

Daily Weather History Graph

Daily Weather History Graph

Search for Another Location

Airport:

Trip Planner

Search our weather history database for the weather conditions in past years. The results will help you decide how hot, cold, wet, or windy it might be!

Date:

Astronomy

Nov. 19, 2011 Rise Set
Actual Time 7:14 AM CST 4:41 PM CST
Civil Twilight 6:42 AM CST 5:13 PM CST
Nautical Twilight 6:07 AM CST 5:49 PM CST
Astronomical Twilight 5:32 AM CST 6:23 PM CST
Moon 12:20 AM CST (11/19) 1:12 PM CST (11/19)
Length of Visible Light 10h 30m
Length of Day
9h 27m
Last Quarter, 38% of the Moon is Illuminated
Nov 19
Last Quarter
Nov 25
New
Dec 2
First Quarter
Dec 10
Full
Dec 17
Last Quarter

Hourly Weather History & Observations

Time (CST) Temp. Windchill Dew Point Humidity Pressure Visibility Wind Dir Wind Speed Gust Speed Precip Events Conditions
12:11 AM 28.4 °F 23.3 °F 24.8 °F 86% 29.71 in 10.0 mi WNW 4.6 mph - N/A   Clear
12:31 AM 30.2 °F 21.9 °F 26.6 °F 86% 29.74 in 10.0 mi West 9.2 mph - N/A   Clear
12:50 AM 32.0 °F 24.2 °F 26.6 °F 80% 29.74 in 10.0 mi NW 9.2 mph - N/A   Clear
1:11 AM 32.0 °F 23.6 °F 26.6 °F 80% 29.72 in 10.0 mi NNW 10.4 mph - N/A   Clear
1:31 AM 32.0 °F 23.6 °F 26.6 °F 80% 29.72 in 10.0 mi NNW 10.4 mph - N/A   Clear
1:50 AM 32.0 °F 25.6 °F 26.6 °F 80% 29.74 in 10.0 mi NW 6.9 mph - N/A   Clear
2:11 AM 30.2 °F 25.4 °F 26.6 °F 86% 29.75 in 10.0 mi NNW 4.6 mph - N/A   Clear
2:31 AM 30.2 °F 23.4 °F 26.6 °F 86% 29.75 in 10.0 mi NNW 6.9 mph - N/A   Clear
2:50 AM 32.0 °F 24.8 °F 26.6 °F 80% 29.74 in 10.0 mi North 8.1 mph - N/A   Clear
3:11 AM 32.0 °F 26.4 °F 26.6 °F 80% 29.74 in 10.0 mi North 5.8 mph - N/A   Clear
3:30 AM 32.0 °F 24.8 °F 26.6 °F 80% 29.72 in 10.0 mi North 8.1 mph - N/A   Clear
3:51 AM 32.0 °F 24.2 °F 28.4 °F 87% 29.74 in 10.0 mi North 9.2 mph - N/A   Clear
4:11 AM 32.0 °F 24.2 °F 28.4 °F 87% 29.75 in 10.0 mi North 9.2 mph - N/A   Clear
4:30 AM 32.0 °F 24.2 °F 28.4 °F 87% 29.76 in 10.0 mi North 9.2 mph - N/A   Clear
5:11 AM 30.2 °F 20.8 °F 28.4 °F 93% 29.76 in 10.0 mi North 11.5 mph - N/A   Overcast
5:30 AM 30.2 °F 21.3 °F 28.4 °F 93% 29.76 in 10.0 mi North 10.4 mph - N/A   Overcast
6:11 AM 30.2 °F 23.4 °F 28.4 °F 93% 29.77 in 10.0 mi North 6.9 mph - N/A   Overcast
6:30 AM 30.2 °F 22.6 °F 28.4 °F 93% 29.75 in 10.0 mi NNE 8.1 mph - N/A   Scattered Clouds
6:51 AM 30.2 °F 22.6 °F 26.6 °F 86% 29.74 in 10.0 mi NNE 8.1 mph - N/A   Clear
7:11 AM 30.2 °F 23.4 °F 26.6 °F 86% 29.76 in 10.0 mi NNE 6.9 mph - N/A   Clear
7:31 AM 30.2 °F 21.3 °F 26.6 °F 86% 29.76 in 10.0 mi North 10.4 mph - N/A   Scattered Clouds
7:51 AM 30.2 °F 22.6 °F 26.6 °F 86% 29.75 in 10.0 mi North 8.1 mph - N/A   Clear
8:11 AM 30.2 °F 21.3 °F 26.6 °F 86% 29.75 in 10.0 mi North 10.4 mph - N/A   Mostly Cloudy
8:30 AM 30.2 °F 21.9 °F 26.6 °F 86% 29.76 in 10.0 mi NNE 9.2 mph 18.4 mph N/A   Overcast
8:51 AM 30.2 °F 21.3 °F 26.6 °F 86% 29.74 in 10.0 mi North 10.4 mph - N/A   Overcast
9:10 AM 30.2 °F 24.3 °F 26.6 °F 86% 29.75 in 10.0 mi NNE 5.8 mph - N/A   Overcast
9:30 AM 30.2 °F 22.6 °F 26.6 °F 86% 29.75 in 10.0 mi NE 8.1 mph - N/A   Overcast
9:51 AM 30.2 °F 22.6 °F 26.6 °F 86% 29.76 in 10.0 mi NNE 8.1 mph - N/A   Overcast
10:11 AM 30.2 °F 19.8 °F 26.6 °F 86% 29.75 in 10.0 mi North 13.8 mph - N/A   Overcast
11:10 AM 30.2 °F 20.8 °F 26.6 °F 86% 29.74 in 10.0 mi NNE 11.5 mph 17.3 mph N/A   Overcast
11:30 AM 30.2 °F 20.8 °F 26.6 °F 86% 29.73 in 10.0 mi North 11.5 mph - N/A   Overcast
11:51 AM 28.4 °F 17.5 °F 26.6 °F 93% 29.71 in 5.0 mi North 13.8 mph - N/A   Overcast
12:11 PM 28.4 °F 17.0 °F 26.6 °F 93% 29.71 in 3.0 mi North 15.0 mph 20.7 mph N/A   Overcast
12:30 PM 28.4 °F 17.5 °F 26.6 °F 93% 29.71 in 3.0 mi North 13.8 mph 21.9 mph N/A   Overcast
12:51 PM 28.4 °F 18.0 °F 26.6 °F 93% 29.72 in 3.0 mi North 12.7 mph 18.4 mph 0.01 in   Overcast
12:55 PM 28.4 °F 18.5 °F 26.6 °F 93% 29.72 in 3.0 mi North 11.5 mph 18.4 mph 0.01 in   Overcast
1:30 PM 26.6 °F 14.7 °F 26.6 °F 100% 29.72 in 4.0 mi North 15.0 mph - N/A   Overcast
1:51 PM 26.6 °F 15.2 °F 24.8 °F 93% 29.71 in 2.0 mi North 13.8 mph 23.0 mph N/A   Overcast
2:11 PM 26.6 °F 15.2 °F 24.8 °F 93% 29.73 in 1.5 mi North 13.8 mph 23.0 mph 0.01 in Snow Light Snow
2:30 PM 26.6 °F 16.8 °F 26.6 °F 100% 29.75 in 1.0 mi North 10.4 mph 17.3 mph 0.01 in   Overcast
2:55 PM 26.6 °F 15.2 °F 26.6 °F 100% 29.75 in 0.5 mi North 13.8 mph 19.6 mph 0.03 in Snow Snow
3:11 PM 26.6 °F 18.2 °F 26.6 °F 100% 29.76 in 0.8 mi North 8.1 mph 18.4 mph 0.01 in Snow Light Snow
3:30 PM 26.6 °F 15.7 °F 26.6 °F 100% 29.77 in 0.8 mi North 12.7 mph 18.4 mph 0.01 in Snow Light Snow
3:51 PM 26.6 °F 15.7 °F 24.8 °F 93% 29.80 in 0.8 mi North 12.7 mph 19.6 mph 0.01 in Snow Light Snow
3:55 PM 26.6 °F 15.7 °F 24.8 °F 93% 29.80 in 0.8 mi North 12.7 mph 20.7 mph 0.01 in Snow Light Snow
4:11 PM 26.6 °F 15.7 °F 24.8 °F 93% 29.81 in 1.0 mi North 12.7 mph 18.4 mph N/A Snow Light Snow
4:30 PM 26.6 °F 15.2 °F 24.8 °F 93% 29.82 in 2.0 mi North 13.8 mph 21.9 mph N/A Snow Light Snow
4:51 PM 26.6 °F 14.3 °F 23.0 °F 86% 29.83 in 4.0 mi North 16.1 mph 24.2 mph N/A Snow Light Snow
5:11 PM 26.6 °F 15.7 °F 24.8 °F 93% 29.84 in 2.5 mi North 12.7 mph 19.6 mph N/A Snow Light Snow
5:30 PM 24.8 °F 12.9 °F 23.0 °F 93% 29.85 in 4.0 mi North 13.8 mph 19.6 mph N/A Snow Light Snow
5:51 PM 24.8 °F 12.9 °F 23.0 °F 93% 29.86 in 7.0 mi North 13.8 mph 18.4 mph N/A Snow Light Snow
6:11 PM 24.8 °F 12.9 °F 23.0 °F 93% 29.88 in 7.0 mi North 13.8 mph 19.6 mph N/A Snow Light Snow
6:30 PM 24.8 °F 13.4 °F 23.0 °F 93% 29.89 in 7.0 mi North 12.7 mph 23.0 mph N/A Snow Light Snow
6:51 PM 24.8 °F 11.1 °F 23.0 °F 93% 29.91 in 10.0 mi NNW 18.4 mph 23.0 mph N/A Snow Light Snow
7:11 PM 26.6 °F 15.2 °F 23.0 °F 86% 29.93 in 10.0 mi NNW 13.8 mph 20.7 mph N/A   Overcast
7:31 PM 26.6 °F 14.7 °F 23.0 °F 86% 29.94 in 10.0 mi NNW 15.0 mph - N/A   Overcast
7:50 PM 26.6 °F 14.7 °F 21.2 °F 80% 29.95 in 10.0 mi NNW 15.0 mph 20.7 mph N/A   Overcast
8:11 PM 24.8 °F 12.9 °F 21.2 °F 86% 29.97 in 10.0 mi NNW 13.8 mph 19.6 mph N/A   Overcast
8:31 PM 24.8 °F 12.9 °F 23.0 °F 93% 29.99 in 10.0 mi NW 13.8 mph 20.7 mph N/A   Overcast
8:50 PM 24.8 °F 11.9 °F 21.2 °F 86% 30.00 in 10.0 mi NNW 16.1 mph 23.0 mph N/A   Overcast
9:11 PM 24.8 °F 12.9 °F 21.2 °F 86% 30.02 in 7.0 mi NW 13.8 mph 20.7 mph N/A   Overcast
9:31 PM 24.8 °F 11.9 °F 21.2 °F 86% 30.04 in 10.0 mi NNW 16.1 mph - N/A   Overcast
9:50 PM 24.8 °F 12.4 °F 21.2 °F 86% 30.06 in 10.0 mi NW 15.0 mph - N/A Snow Light Snow
10:11 PM 24.8 °F 12.4 °F 19.4 °F 80% 30.07 in 10.0 mi NNW 15.0 mph 24.2 mph N/A Snow Light Snow
10:31 PM 23.0 °F 10.1 °F 19.4 °F 86% 30.07 in 10.0 mi NW 15.0 mph - N/A Snow Light Snow
11:11 PM 23.0 °F 11.1 °F 19.4 °F 86% 30.10 in 10.0 mi NNW 12.7 mph - N/A Snow Light Snow
11:31 PM 23.0 °F 13.1 °F 19.4 °F 86% 30.11 in 10.0 mi NNW 9.2 mph 16.1 mph N/A   Overcast